Location: *
(46.3500°N, 10.9000°E)
Time: 12:55:36
(UTC+00:00)

Cosmos 1954 Rocket - Pass Details

Date: 09 April 2020
Orbit: 752 x 781 km, 74.1° (Epoch: 25 May)

Event Time Altitude Azimuth Distance (km) Brightness Sun altitude
Rises 19:27:40 0° 197° (SSW) 3,227 7.1 -15.5°
Reaches altitude 10° 19:30:02 10° 197° (SSW) 2,300 6.3 -15.8°
Maximum altitude 19:35:15 83° 111° (ESE) 775 3.9 -16.6°
Drops below altitude 10° 19:40:28 10° 23° (NNE) 2,298 6.6 -17.3°
Sets 19:42:50 0° 23° (NNE) 3,224 7.4 -17.7°
